Time,TemperatureF,DewpointF,PressureIn,WindDirection,WindDirectionDegrees,WindSpeedMPH,WindSpeedGustMPH,Humidity,HourlyPrecipIn,Conditions,Clouds,dailyrainin,SoftwareType,DateUTC
2013-09-02 00:04:00,58.6,56.0,30.05,West,280,20.7,20.7,91,0.00,CLR,,0.00,WeatherDisplay:10.37,2013-09-01 23:04:00,
2013-09-02 00:09:00,58.6,56.0,30.05,West,279,21.9,21.9,91,0.00,CLR,,0.00,WeatherDisplay:10.37,2013-09-01 23:09:00,
2013-09-02 00:14:00,58.7,56.1,30.05,West,261,24.2,24.2,91,0.00,CLR,,0.00,WeatherDisplay:10.37,2013-09-01 23:14:00,
2013-09-02 00:19:00,58.8,56.2,30.05,WSW,246,20.7,20.7,91,0.00,CLR,,0.00,WeatherDisplay:10.37,2013-09-01 23:19:00,
2013-09-02 00:24:00,58.9,56.3,30.05,West,278,26.5,26.5,91,0.00,CLR,,0.00,WeatherDisplay:10.37,2013-09-01 23:24:00,
2013-09-02 00:29:00,59.0,56.1,30.05,WSW,246,16.1,16.1,90,0.00,CLR,,0.00,WeatherDisplay:10.37,2013-09-01 23:29:00,
2013-09-02 00:34:00,59.1,56.2,30.05,West,264,21.9,21.9,90,0.00,CLR,,0.00,WeatherDisplay:10.37,2013-09-01 23:34:00,
2013-09-02 00:39:00,59.3,56.4,30.05,SW,234,26.5,26.5,90,0.00,CLR,,0.00,WeatherDisplay:10.37,2013-09-01 23:39:00,
2013-09-02 00:44:00,59.4,56.2,30.05,West,265,21.9,21.9,89,0.00,CLR,,0.00,WeatherDisplay:10.37,2013-09-01 23:44:00,
2013-09-02 00:49:00,59.5,56.3,30.05,West,261,19.6,19.6,89,0.00,CLR,,0.00,WeatherDisplay:10.37,2013-09-01 23:49:00,
2013-09-02 00:54:00,59.6,56.4,30.05,WNW,290,20.7,20.7,89,0.00,CLR,,0.00,WeatherDisplay:10.37,2013-09-01 23:54:00,
2013-09-02 00:59:00,59.7,56.5,30.05,WNW,283,21.9,21.9,89,0.00,CLR,,0.00,WeatherDisplay:10.37,2013-09-01 23:59:00,
2013-09-02 01:04:00,59.8,56.6,30.05,West,275,18.4,18.4,89,0.00,CLR,,0.00,WeatherDisplay:10.37,2013-09-02 00:04:00,
2013-09-02 01:09:00,59.8,56.2,30.05,West,259,20.7,20.7,88,0.00,CLR,,0.00,WeatherDisplay:10.37,2013-09-02 00:09:00,
2013-09-02 01:14:00,59.8,56.2,30.05,West,259,28.8,28.8,88,0.00,CLR,,0.00,WeatherDisplay:10.37,2013-09-02 00:14:00,
2013-09-02 01:19:00,59.9,56.3,30.05,West,273,24.2,24.2,88,0.00,CLR,,0.00,WeatherDisplay:10.37,2013-09-02 00:19:00,
2013-09-02 01:24:00,60.0,56.4,30.05,West,261,16.1,16.1,88,0.00,CLR,,0.00,WeatherDisplay:10.37,2013-09-02 00:24:00,
2013-09-02 01:29:00,60.0,56.4,30.05,WSW,240,23.0,23.0,88,0.00,CLR,,0.00,WeatherDisplay:10.37,2013-09-02 00:29:00,
2013-09-02 01:34:00,60.0,56.4,30.05,WSW,250,19.6,19.6,88,0.00,CLR,,0.00,WeatherDisplay:10.37,2013-09-02 00:34:00,
2013-09-02 01:39:00,60.1,56.5,30.05,WNW,285,20.7,20.7,88,0.00,CLR,,0.00,WeatherDisplay:10.37,2013-09-02 00:39:00,
2013-09-02 01:44:00,60.2,56.6,30.05,West,265,24.2,24.2,88,0.00,CLR,,0.00,WeatherDisplay:10.37,2013-09-02 00:44:00,
2013-09-02 01:49:00,60.3,56.7,30.05,West,276,23.0,23.0,88,0.00,CLR,,0.00,WeatherDisplay:10.37,2013-09-02 00:49:00,
2013-09-02 01:54:00,60.3,56.7,30.05,SW,235,18.4,18.4,88,0.00,CLR,,0.00,WeatherDisplay:10.37,2013-09-02 00:54:00,
2013-09-02 01:59:00,60.4,56.8,30.05,West,267,21.9,21.9,88,0.00,CLR,,0.00,WeatherDisplay:10.37,2013-09-02 00:59:00,
2013-09-02 02:04:00,60.4,56.8,30.05,West,261,25.3,25.3,88,0.00,CLR,,0.00,WeatherDisplay:10.37,2013-09-02 01:04:00,
2013-09-02 02:09:00,60.3,56.7,30.05,West,275,24.2,24.2,88,0.00,CLR,,0.00,WeatherDisplay:10.37,2013-09-02 01:09:00,
2013-09-02 02:14:00,60.3,56.7,30.05,WNW,298,23.0,23.0,88,0.00,CLR,,0.00,WeatherDisplay:10.37,2013-09-02 01:14:00,
2013-09-02 02:19:00,60.3,56.7,30.05,WSW,241,20.0,20.0,88,0.00,CLR,,0.00,WeatherDisplay:10.37,2013-09-02 01:19:00,
2013-09-02 02:24:00,60.3,56.7,30.05,West,271,19.6,19.6,88,0.00,CLR,,0.00,WeatherDisplay:10.37,2013-09-02 01:24:00,
2013-09-02 02:29:00,60.3,56.7,30.05,WSW,251,21.0,21.0,88,0.00,CLR,,0.00,WeatherDisplay:10.37,2013-09-02 01:29:00,
2013-09-02 02:34:00,60.3,57.0,30.04,West,263,24.2,24.2,89,0.00,CLR,,0.00,WeatherDisplay:10.37,2013-09-02 01:34:00,
2013-09-02 02:39:00,60.3,57.0,30.04,West,279,15.0,15.0,89,0.00,CLR,,0.00,WeatherDisplay:10.37,2013-09-02 01:39:00,
2013-09-02 02:44:00,60.3,57.0,30.04,West,265,17.3,17.3,89,0.00,CLR,,0.00,WeatherDisplay:10.37,2013-09-02 01:44:00,
2013-09-02 02:49:00,60.3,57.0,30.05,WSW,246,18.4,18.4,89,0.00,CLR,,0.00,WeatherDisplay:10.37,2013-09-02 01:49:00,
2013-09-02 02:54:00,60.4,57.1,30.05,WSW,257,19.6,19.6,89,0.00,CLR,,0.00,WeatherDisplay:10.37,2013-09-02 01:54:00,
2013-09-02 02:59:00,60.4,57.1,30.05,West,269,21.9,21.9,89,0.00,CLR,,0.00,WeatherDisplay:10.37,2013-09-02 01:59:00,
2013-09-02 03:04:00,60.4,57.1,30.05,WNW,302,20.7,20.7,89,0.00,CLR,,0.00,WeatherDisplay:10.37,2013-09-02 02:04:00,
2013-09-02 03:09:00,60.5,57.2,30.05,West,270,16.0,16.0,89,0.00,CLR,,0.00,WeatherDisplay:10.37,2013-09-02 02:09:00,
2013-09-02 03:14:00,60.5,57.2,30.05,West,266,21.9,21.9,89,0.00,CLR,,0.00,WeatherDisplay:10.37,2013-09-02 02:14:00,
2013-09-02 03:19:00,60.5,57.2,30.04,WSW,240,16.0,16.0,89,0.00,CLR,,0.00,WeatherDisplay:10.37,2013-09-02 02:19:00,
2013-09-02 03:24:00,60.5,57.2,30.04,West,267,16.1,16.1,89,0.00,CLR,,0.00,WeatherDisplay:10.37,2013-09-02 02:24:00,
2013-09-02 03:29:00,60.5,57.2,30.04,SW,221,15.0,15.0,89,0.00,CLR,,0.00,WeatherDisplay:10.37,2013-09-02 02:29:00,
2013-09-02 03:34:00,60.5,57.2,30.05,West,270,17.3,17.3,89,0.00,CLR,,0.00,WeatherDisplay:10.37,2013-09-02 02:34:00,
2013-09-02 03:39:00,60.5,57.2,30.05,West,277,11.5,11.5,89,0.00,CLR,,0.00,WeatherDisplay:10.37,2013-09-02 02:39:00,
2013-09-02 03:44:00,60.4,57.1,30.05,WNW,288,18.4,18.4,89,0.00,CLR,,0.00,WeatherDisplay:10.37,2013-09-02 02:44:00,
2013-09-02 03:49:00,60.5,57.2,30.05,West,267,18.4,18.4,89,0.00,CLR,,0.00,WeatherDisplay:10.37,2013-09-02 02:49:00,
2013-09-02 03:54:00,60.5,57.6,30.05,WSW,242,19.6,19.6,90,0.00,CLR,,0.00,WeatherDisplay:10.37,2013-09-02 02:54:00,
2013-09-02 03:59:00,60.5,57.6,30.05,West,269,18.4,18.4,90,0.00,CLR,,0.00,WeatherDisplay:10.37,2013-09-02 02:59:00,
2013-09-02 04:04:00,60.5,57.6,30.05,West,271,16.1,16.1,90,0.00,CLR,,0.00,WeatherDisplay:10.37,2013-09-02 03:04:00,
2013-09-02 04:09:00,60.6,57.7,30.05,WSW,250,20.7,20.7,90,0.00,CLR,,0.00,WeatherDisplay:10.37,2013-09-02 03:09:00,
2013-09-02 04:14:00,60.6,57.7,30.05,West,279,18.4,18.4,90,0.00,CLR,,0.00,WeatherDisplay:10.37,2013-09-02 03:14:00,
2013-09-02 04:19:00,60.6,57.7,30.04,SSW,200,17.3,17.3,90,0.00,CLR,,0.00,WeatherDisplay:10.37,2013-09-02 03:19:00,
2013-09-02 04:24:00,60.6,57.7,30.04,West,281,20.7,20.7,90,0.00,CLR,,0.00,WeatherDisplay:10.37,2013-09-02 03:24:00,
2013-09-02 04:29:00,60.7,57.7,30.04,WSW,251,16.1,16.1,90,0.00,CLR,,0.00,WeatherDisplay:10.37,2013-09-02 03:29:00,
2013-09-02 04:34:00,60.7,57.7,30.04,West,266,15.0,15.0,90,0.00,CLR,,0.00,WeatherDisplay:10.37,2013-09-02 03:34:00,
2013-09-02 04:39:00,60.7,57.7,30.04,West,276,12.7,12.7,90,0.00,CLR,,0.00,WeatherDisplay:10.37,2013-09-02 03:39:00,
2013-09-02 04:44:00,60.6,57.7,30.04,WSW,250,18.0,18.0,90,0.00,CLR,,0.00,WeatherDisplay:10.37,2013-09-02 03:44:00,
2013-09-02 04:49:00,60.6,57.7,30.05,WSW,257,23.0,23.0,90,0.00,CLR,,0.00,WeatherDisplay:10.37,2013-09-02 03:49:00,
2013-09-02 04:54:00,60.6,57.7,30.05,WSW,258,15.0,15.0,90,0.00,CLR,,0.00,WeatherDisplay:10.37,2013-09-02 03:54:00,
2013-09-02 04:59:00,60.5,57.6,30.05,West,259,17.3,17.3,90,0.00,CLR,,0.00,WeatherDisplay:10.37,2013-09-02 03:59:00,
2013-09-02 05:01:00,60.5,57.6,30.05,WNW,284,19.0,19.0,90,0.00,CLR,,0.00,WeatherDisplay:10.37,2013-09-02 04:01:00,
2013-09-02 05:02:00,60.5,57.6,30.05,WSW,258,19.6,19.6,90,0.00,CLR,,0.00,WeatherDisplay:10.37,2013-09-02 04:02:00,
2013-09-02 05:03:00,60.5,57.6,30.05,West,275,19.6,19.6,90,0.00,CLR,,0.00,WeatherDisplay:10.37,2013-09-02 04:03:00,
2013-09-02 05:05:00,60.5,57.6,30.05,SW,232,18.4,18.4,90,0.00,CLR,,0.00,WeatherDisplay:10.37,2013-09-02 04:05:00,
2013-09-02 05:06:00,60.5,57.6,30.05,WNW,297,18.4,18.4,90,0.00,CLR,,0.00,WeatherDisplay:10.37,2013-09-02 04:06:00,
2013-09-02 05:11:00,60.5,57.6,30.05,West,279,19.6,19.6,90,0.00,CLR,,0.00,WeatherDisplay:10.37,2013-09-02 04:11:00,
2013-09-02 05:16:00,60.5,57.6,30.05,West,267,19.6,19.6,90,0.00,CLR,,0.00,WeatherDisplay:10.37,2013-09-02 04:16:00,
2013-09-02 05:21:00,60.5,57.6,30.05,WSW,247,16.1,16.1,90,0.00,CLR,,0.00,WeatherDisplay:10.37,2013-09-02 04:21:00,
2013-09-02 05:26:00,60.5,57.6,30.05,West,267,23.0,23.0,90,0.00,CLR,,0.00,WeatherDisplay:10.37,2013-09-02 04:26:00,
2013-09-02 05:31:00,60.5,57.6,30.05,West,277,11.5,11.5,90,0.00,CLR,,0.00,WeatherDisplay:10.37,2013-09-02 04:31:00,
2013-09-02 05:36:00,60.5,57.6,30.05,NW,309,17.3,17.3,90,0.00,CLR,,0.00,WeatherDisplay:10.37,2013-09-02 04:36:00,
2013-09-02 05:41:00,60.6,57.7,30.05,West,277,19.6,19.6,90,0.00,CLR,,0.00,WeatherDisplay:10.37,2013-09-02 04:41:00,
2013-09-02 05:46:00,60.5,57.6,30.05,West,276,15.0,15.0,90,0.00,CLR,,0.00,WeatherDisplay:10.37,2013-09-02 04:46:00,
2013-09-02 05:51:00,60.6,57.7,30.05,WNW,283,18.4,18.4,90,0.00,CLR,,0.00,WeatherDisplay:10.37,2013-09-02 04:51:00,
2013-09-02 05:56:00,60.6,57.7,30.05,WNW,296,16.1,16.1,90,0.00,CLR,,0.00,WeatherDisplay:10.37,2013-09-02 04:56:00,
2013-09-02 06:01:00,60.6,57.7,30.05,NW,304,17.3,17.3,90,0.00,CLR,,0.00,WeatherDisplay:10.37,2013-09-02 05:01:00,
2013-09-02 06:06:00,60.6,57.7,30.05,NNW,331,21.9,21.9,90,0.00,CLR,,0.00,WeatherDisplay:10.37,2013-09-02 05:06:00,
2013-09-02 06:11:00,60.6,57.3,30.05,NW,318,17.3,17.3,89,0.00,CLR,,0.00,WeatherDisplay:10.37,2013-09-02 05:11:00,
2013-09-02 06:16:00,60.6,57.3,30.06,West,280,15.0,15.0,89,0.00,CLR,,0.00,WeatherDisplay:10.37,2013-09-02 05:16:00,
2013-09-02 06:21:00,60.7,57.4,30.06,West,261,19.6,19.6,89,0.00,CLR,,0.00,WeatherDisplay:10.37,2013-09-02 05:21:00,
2013-09-02 06:26:00,60.7,57.4,30.06,WSW,240,18.4,18.4,89,0.00,CLR,,0.00,WeatherDisplay:10.37,2013-09-02 05:26:00,
2013-09-02 06:31:00,60.6,57.3,30.05,WNW,285,17.3,17.3,89,0.00,CLR,,0.00,WeatherDisplay:10.37,2013-09-02 05:31:00,
2013-09-02 06:36:00,60.6,57.3,30.05,WNW,297,23.0,23.0,89,0.00,CLR,,0.00,WeatherDisplay:10.37,2013-09-02 05:36:00,
2013-09-02 06:41:00,60.7,57.4,30.05,West,273,17.3,17.3,89,0.00,CLR,,0.00,WeatherDisplay:10.37,2013-09-02 05:41:00,
2013-09-02 06:46:00,60.7,57.1,30.06,SSW,193,27.6,27.6,88,0.00,CLR,,0.00,WeatherDisplay:10.37,2013-09-02 05:46:00,
2013-09-02 06:51:00,60.7,57.1,30.06,NNW,338,18.4,18.4,88,0.00,CLR,,0.00,WeatherDisplay:10.37,2013-09-02 05:51:00,
2013-09-02 06:56:00,60.7,57.1,30.06,West,281,24.2,24.2,88,0.00,CLR,,0.00,WeatherDisplay:10.37,2013-09-02 05:56:00,
2013-09-02 07:01:00,60.7,57.1,30.06,WSW,244,19.6,19.6,88,0.00,CLR,,0.00,WeatherDisplay:10.37,2013-09-02 06:01:00,
2013-09-02 07:06:00,60.7,57.1,30.06,West,266,20.7,20.7,88,0.00,CLR,,0.00,WeatherDisplay:10.37,2013-09-02 06:06:00,
2013-09-02 07:11:00,60.7,57.1,30.06,WNW,284,20.7,20.7,88,0.00,CLR,,0.00,WeatherDisplay:10.37,2013-09-02 06:11:00,
2013-09-02 07:16:00,60.7,56.8,30.06,West,279,26.5,26.5,87,0.00,CLR,,0.00,WeatherDisplay:10.37,2013-09-02 06:16:00,
2013-09-02 07:21:00,60.8,56.9,30.06,SW,227,19.6,19.6,87,0.00,CLR,,0.00,WeatherDisplay:10.37,2013-09-02 06:21:00,
2013-09-02 07:26:00,60.9,57.0,30.06,West,269,26.5,26.5,87,0.00,CLR,,0.00,WeatherDisplay:10.37,2013-09-02 06:26:00,
2013-09-02 07:31:00,61.0,56.8,30.05,SW,230,24.2,24.2,86,0.00,CLR,,0.00,WeatherDisplay:10.37,2013-09-02 06:31:00,
2013-09-02 07:36:00,61.2,57.0,30.05,WNW,296,27.6,27.6,86,0.00,CLR,,0.00,WeatherDisplay:10.37,2013-09-02 06:36:00,
2013-09-02 07:41:00,61.4,56.8,30.05,West,262,27.6,27.6,85,0.00,CLR,,0.00,WeatherDisplay:10.37,2013-09-02 06:41:00,
2013-09-02 07:46:00,61.5,57.3,30.04,West,274,27.6,27.6,86,0.00,CLR,,0.00,WeatherDisplay:10.37,2013-09-02 06:46:00,
2013-09-02 07:51:00,61.5,57.3,30.04,SW,229,24.2,24.2,86,0.00,CLR,,0.00,WeatherDisplay:10.37,2013-09-02 06:51:00,
2013-09-02 07:56:00,61.5,57.3,30.04,WNW,283,27.6,27.6,86,0.00,CLR,,0.00,WeatherDisplay:10.37,2013-09-02 06:56:00,
2013-09-02 08:01:00,61.4,57.5,30.05,West,279,25.3,25.3,87,0.00,CLR,,0.00,WeatherDisplay:10.37,2013-09-02 07:01:00,
2013-09-02 08:06:00,61.5,57.6,30.05,West,275,24.2,24.2,87,0.00,CLR,,0.00,WeatherDisplay:10.37,2013-09-02 07:06:00,
2013-09-02 08:11:00,61.5,57.6,30.05,West,259,26.5,26.5,87,0.00,CLR,,0.00,WeatherDisplay:10.37,2013-09-02 07:11:00,
2013-09-02 08:16:00,61.5,57.6,30.05,West,270,27.6,27.6,87,0.00,CLR,,0.00,WeatherDisplay:10.37,2013-09-02 07:16:00,
2013-09-02 08:21:00,61.4,57.5,30.05,West,281,21.9,21.9,87,0.00,CLR,,0.00,WeatherDisplay:10.37,2013-09-02 07:21:00,
2013-09-02 08:26:00,61.4,57.8,30.05,West,272,25.3,25.3,88,0.00,CLR,,0.00,WeatherDisplay:10.37,2013-09-02 07:26:00,
2013-09-02 08:31:00,61.5,57.9,30.05,South,189,21.9,21.9,88,0.00,CLR,,0.00,WeatherDisplay:10.37,2013-09-02 07:31:00,
2013-09-02 08:36:00,61.6,58.0,30.05,West,263,27.6,27.6,88,0.00,CLR,,0.00,WeatherDisplay:10.37,2013-09-02 07:36:00,
2013-09-02 08:41:00,61.7,58.1,30.05,WNW,288,21.9,21.9,88,0.00,CLR,,0.00,WeatherDisplay:10.37,2013-09-02 07:41:00,
2013-09-02 08:46:00,61.8,57.9,30.05,West,273,20.7,20.7,87,0.00,CLR,,0.00,WeatherDisplay:10.37,2013-09-02 07:46:00,
2013-09-02 08:51:00,61.9,58.3,30.05,West,271,23.0,23.0,88,0.00,CLR,,0.00,WeatherDisplay:10.37,2013-09-02 07:51:00,
2013-09-02 08:56:00,62.0,58.4,30.05,NW,319,18.4,18.4,88,0.00,CLR,,0.00,WeatherDisplay:10.37,2013-09-02 07:56:00,
2013-09-02 09:01:00,62.1,58.2,30.06,West,267,25.3,25.3,87,0.00,CLR,,0.00,WeatherDisplay:10.37,2013-09-02 08:01:00,
2013-09-02 09:06:00,62.2,58.3,30.06,WNW,284,26.5,26.5,87,0.00,CLR,,0.00,WeatherDisplay:10.37,2013-09-02 08:06:00,
2013-09-02 09:11:00,62.3,58.4,30.06,West,267,24.2,24.2,87,0.00,CLR,,0.00,WeatherDisplay:10.37,2013-09-02 08:11:00,
2013-09-02 09:16:00,62.4,58.5,30.06,West,269,13.8,13.8,87,0.00,CLR,,0.00,WeatherDisplay:10.37,2013-09-02 08:16:00,
2013-09-02 09:21:00,62.5,58.6,30.06,WSW,252,18.0,18.0,87,0.00,CLR,,0.00,WeatherDisplay:10.37,2013-09-02 08:21:00,
2013-09-02 09:26:00,62.7,58.8,30.06,SW,234,19.6,19.6,87,0.00,CLR,,0.00,WeatherDisplay:10.37,2013-09-02 08:26:00,
2013-09-02 09:31:00,62.8,58.5,30.07,West,281,20.7,20.7,86,0.00,CLR,,0.00,WeatherDisplay:10.37,2013-09-02 08:31:00,
2013-09-02 09:36:00,63.0,58.7,30.07,West,275,16.1,16.1,86,0.00,CLR,,0.00,WeatherDisplay:10.37,2013-09-02 08:36:00,
2013-09-02 09:41:00,63.2,58.9,30.07,WSW,257,19.6,19.6,86,0.00,CLR,,0.00,WeatherDisplay:10.37,2013-09-02 08:41:00,
2013-09-02 09:46:00,63.5,58.9,30.07,West,273,27.6,27.6,85,0.00,CLR,,0.00,WeatherDisplay:10.37,2013-09-02 08:46:00,
2013-09-02 09:51:00,63.6,58.7,30.07,WSW,257,24.2,24.2,84,0.00,CLR,,0.00,WeatherDisplay:10.37,2013-09-02 08:51:00,
2013-09-02 09:56:00,63.7,59.1,30.07,WNW,302,18.4,18.4,85,0.00,CLR,,0.00,WeatherDisplay:10.37,2013-09-02 08:56:00,
2013-09-02 10:01:00,63.9,59.0,30.07,West,280,24.2,24.2,84,0.00,CLR,,0.00,WeatherDisplay:10.37,2013-09-02 09:01:00,
2013-09-02 10:06:00,64.0,59.1,30.07,West,264,18.4,18.4,84,0.00,CLR,,0.00,WeatherDisplay:10.37,2013-09-02 09:06:00,
2013-09-02 10:11:00,64.1,59.2,30.07,West,263,19.6,19.6,84,0.00,CLR,,0.00,WeatherDisplay:10.37,2013-09-02 09:11:00,
2013-09-02 10:16:00,64.3,59.4,30.08,SW,229,19.6,19.6,84,0.00,CLR,,0.00,WeatherDisplay:10.37,2013-09-02 09:16:00,
2013-09-02 10:21:00,64.4,59.5,30.08,West,265,25.3,25.3,84,0.00,CLR,,0.00,WeatherDisplay:10.37,2013-09-02 09:21:00,
2013-09-02 10:26:00,64.7,59.8,30.08,West,270,11.5,11.5,84,0.00,CLR,,0.00,WeatherDisplay:10.37,2013-09-02 09:26:00,
2013-09-02 10:31:00,65.0,59.7,30.08,WNW,298,20.7,20.7,83,0.00,CLR,,0.00,WeatherDisplay:10.37,2013-09-02 09:31:00,
2013-09-02 10:36:00,65.4,59.8,30.08,West,260,19.6,19.6,82,0.00,CLR,,0.00,WeatherDisplay:10.37,2013-09-02 09:36:00,
2013-09-02 10:41:00,65.7,60.1,30.08,WSW,244,20.7,20.7,82,0.00,CLR,,0.00,WeatherDisplay:10.37,2013-09-02 09:41:00,
2013-09-02 10:46:00,65.7,59.7,30.07,WSW,249,20.7,20.7,81,0.00,CLR,,0.00,WeatherDisplay:10.37,2013-09-02 09:46:00,
2013-09-02 10:51:00,65.8,59.5,30.07,WSW,245,23.0,23.0,80,0.00,CLR,,0.00,WeatherDisplay:10.37,2013-09-02 09:51:00,
2013-09-02 10:56:00,65.9,59.6,30.07,WNW,291,18.4,18.4,80,0.00,CLR,,0.00,WeatherDisplay:10.37,2013-09-02 09:56:00,
2013-09-02 11:01:00,66.0,59.7,30.08,West,267,19.6,19.6,80,0.00,CLR,,0.00,WeatherDisplay:10.37,2013-09-02 10:01:00,
2013-09-02 11:06:00,66.0,59.7,30.08,WSW,247,27.6,27.6,80,0.00,CLR,,0.00,WeatherDisplay:10.37,2013-09-02 10:06:00,
2013-09-02 11:11:00,66.0,59.7,30.08,WSW,240,23.0,23.0,80,0.00,CLR,,0.00,WeatherDisplay:10.37,2013-09-02 10:11:00,
2013-09-02 11:16:00,66.1,59.7,30.08,WSW,247,16.1,16.1,80,0.00,CLR,,0.00,WeatherDisplay:10.37,2013-09-02 10:16:00,
2013-09-02 11:21:00,65.8,59.8,30.08,South,171,24.2,24.2,81,0.00,CLR,,0.00,WeatherDisplay:10.37,2013-09-02 10:21:00,
2013-09-02 11:26:00,65.7,59.7,30.08,NW,310,20.7,20.7,81,0.00,CLR,,0.00,WeatherDisplay:10.37,2013-09-02 10:26:00,
2013-09-02 11:31:00,65.6,60.0,30.08,West,269,21.9,21.9,82,0.00,CLR,,0.00,WeatherDisplay:10.37,2013-09-02 10:31:00,
2013-09-02 11:36:00,65.8,59.8,30.08,NW,317,26.5,26.5,81,0.00,CLR,,0.00,WeatherDisplay:10.37,2013-09-02 10:36:00,
2013-09-02 11:41:00,66.2,59.8,30.08,West,273,21.9,21.9,80,0.00,CLR,,0.00,WeatherDisplay:10.37,2013-09-02 10:41:00,
2013-09-02 11:46:00,66.3,59.9,30.07,WNW,284,20.7,20.7,80,0.00,CLR,,0.00,WeatherDisplay:10.37,2013-09-02 10:46:00,
2013-09-02 11:51:00,66.7,60.0,30.07,WSW,248,21.9,21.9,79,0.00,CLR,,0.00,WeatherDisplay:10.37,2013-09-02 10:51:00,
2013-09-02 11:56:00,66.9,60.2,30.07,West,277,26.5,26.5,79,0.00,CLR,,0.00,WeatherDisplay:10.37,2013-09-02 10:56:00,
2013-09-02 12:01:00,67.2,60.1,30.07,WNW,290,23.0,23.0,78,0.00,CLR,,0.00,WeatherDisplay:10.37,2013-09-02 11:01:00,
2013-09-02 12:06:00,67.3,59.8,30.07,West,260,26.5,26.5,77,0.00,CLR,,0.00,WeatherDisplay:10.37,2013-09-02 11:06:00,
2013-09-02 12:11:00,67.2,59.7,30.07,West,267,23.0,23.0,77,0.00,CLR,,0.00,WeatherDisplay:10.37,2013-09-02 11:11:00,
2013-09-02 12:16:00,67.4,60.3,30.07,West,263,23.0,23.0,78,0.00,CLR,,0.00,WeatherDisplay:10.37,2013-09-02 11:16:00,
2013-09-02 12:21:00,67.7,60.2,30.07,West,261,24.2,24.2,77,0.00,CLR,,0.00,WeatherDisplay:10.37,2013-09-02 11:21:00,
2013-09-02 12:26:00,67.6,60.1,30.07,West,269,29.9,29.9,77,0.00,CLR,,0.00,WeatherDisplay:10.37,2013-09-02 11:26:00,
2013-09-02 12:31:00,67.6,60.1,30.08,WSW,250,26.5,26.5,77,0.00,CLR,,0.00,WeatherDisplay:10.37,2013-09-02 11:31:00,
2013-09-02 12:36:00,68.1,60.2,30.08,West,266,26.5,26.5,76,0.00,CLR,,0.00,WeatherDisplay:10.37,2013-09-02 11:36:00,
2013-09-02 12:41:00,68.4,60.5,30.08,WSW,246,21.9,21.9,76,0.00,CLR,,0.00,WeatherDisplay:10.37,2013-09-02 11:41:00,
2013-09-02 12:46:00,68.6,60.4,30.08,West,270,20.7,20.7,75,0.00,CLR,,0.00,WeatherDisplay:10.37,2013-09-02 11:46:00,
2013-09-02 12:51:00,68.7,60.5,30.08,West,275,27.6,27.6,75,0.00,CLR,,0.00,WeatherDisplay:10.37,2013-09-02 11:51:00,
2013-09-02 12:56:00,68.7,60.8,30.08,WSW,248,23.0,23.0,76,0.00,CLR,,0.00,WeatherDisplay:10.37,2013-09-02 11:56:00,
2013-09-02 13:01:00,68.4,60.2,30.09,West,263,26.5,26.5,75,0.00,CLR,,0.00,WeatherDisplay:10.37,2013-09-02 12:01:00,
2013-09-02 13:06:00,68.1,60.2,30.09,WSW,246,20.7,20.7,76,0.00,CLR,,0.00,WeatherDisplay:10.37,2013-09-02 12:06:00,
2013-09-02 13:11:00,67.8,60.3,30.09,WNW,302,19.6,19.6,77,0.00,CLR,,0.00,WeatherDisplay:10.37,2013-09-02 12:11:00,
2013-09-02 13:16:00,67.6,60.5,30.09,WSW,258,13.8,13.8,78,0.00,CLR,,0.00,WeatherDisplay:10.37,2013-09-02 12:16:00,
2013-09-02 13:21:00,67.2,60.1,30.09,West,265,24.2,24.2,78,0.00,CLR,,0.00,WeatherDisplay:10.37,2013-09-02 12:21:00,
2013-09-02 13:26:00,66.8,60.1,30.09,WNW,294,21.9,21.9,79,0.00,CLR,,0.00,WeatherDisplay:10.37,2013-09-02 12:26:00,
2013-09-02 13:31:00,66.6,59.9,30.10,West,279,15.0,15.0,79,0.00,CLR,,0.00,WeatherDisplay:10.37,2013-09-02 12:31:00,
2013-09-02 13:36:00,66.4,59.7,30.10,WNW,286,18.4,18.4,79,0.00,CLR,,0.00,WeatherDisplay:10.37,2013-09-02 12:36:00,
2013-09-02 13:41:00,66.3,59.9,30.10,WSW,254,11.5,11.5,80,0.00,CLR,,0.00,WeatherDisplay:10.37,2013-09-02 12:41:00,
2013-09-02 13:46:00,66.2,59.8,30.11,West,276,17.3,17.3,80,0.00,CLR,,0.00,WeatherDisplay:10.37,2013-09-02 12:46:00,
2013-09-02 13:51:00,66.2,60.2,30.11,West,274,19.6,19.6,81,0.00,CLR,,0.00,WeatherDisplay:10.37,2013-09-02 12:51:00,
2013-09-02 13:56:00,66.3,60.3,30.11,WNW,283,19.0,19.0,81,0.00,CLR,,0.00,WeatherDisplay:10.37,2013-09-02 12:56:00,
2013-09-02 14:01:00,66.3,60.3,30.11,South,186,17.3,17.3,81,0.00,CLR,,0.00,WeatherDisplay:10.37,2013-09-02 13:01:00,
2013-09-02 14:06:00,66.2,59.5,30.11,WNW,295,25.3,25.3,79,0.00,CLR,,0.00,WeatherDisplay:10.37,2013-09-02 13:06:00,
2013-09-02 14:11:00,66.2,59.8,30.11,West,280,17.3,17.3,80,0.00,CLR,,0.00,WeatherDisplay:10.37,2013-09-02 13:11:00,
2013-09-02 14:16:00,66.4,60.0,30.11,WSW,238,19.6,19.6,80,0.00,CLR,,0.00,WeatherDisplay:10.37,2013-09-02 13:16:00,
2013-09-02 14:21:00,66.3,59.6,30.11,West,278,24.2,24.2,79,0.00,CLR,,0.00,WeatherDisplay:10.37,2013-09-02 13:21:00,
2013-09-02 14:26:00,66.5,60.1,30.11,NW,304,19.6,19.6,80,0.00,CLR,,0.00,WeatherDisplay:10.37,2013-09-02 13:26:00,
2013-09-02 14:31:00,66.5,59.8,30.10,West,269,12.7,12.7,79,0.00,CLR,,0.00,WeatherDisplay:10.37,2013-09-02 13:31:00,
2013-09-02 14:36:00,66.7,59.6,30.10,WNW,283,27.6,27.6,78,0.00,CLR,,0.00,WeatherDisplay:10.37,2013-09-02 13:36:00,
2013-09-02 14:41:00,66.7,60.3,30.10,West,278,20.0,20.0,80,0.00,CLR,,0.00,WeatherDisplay:10.37,2013-09-02 13:41:00,
2013-09-02 14:46:00,66.9,60.2,30.10,WNW,283,23.0,23.0,79,0.00,CLR,,0.00,WeatherDisplay:10.37,2013-09-02 13:46:00,
2013-09-02 14:51:00,66.9,60.2,30.10,WSW,252,19.6,19.6,79,0.00,CLR,,0.00,WeatherDisplay:10.37,2013-09-02 13:51:00,
2013-09-02 14:56:00,66.8,59.7,30.10,West,268,25.3,25.3,78,0.00,CLR,,0.00,WeatherDisplay:10.37,2013-09-02 13:56:00,
2013-09-02 15:01:00,66.6,59.5,30.11,West,279,24.2,24.2,78,0.00,CLR,,0.00,WeatherDisplay:10.37,2013-09-02 14:01:00,
2013-09-02 15:06:00,66.7,60.0,30.11,South,191,18.4,18.4,79,0.00,CLR,,0.00,WeatherDisplay:10.37,2013-09-02 14:06:00,
2013-09-02 15:11:00,66.6,59.5,30.11,NW,304,23.0,23.0,78,0.00,CLR,,0.00,WeatherDisplay:10.37,2013-09-02 14:11:00,
2013-09-02 15:16:00,66.5,59.4,30.11,WNW,284,19.6,19.6,78,0.00,CLR,,0.00,WeatherDisplay:10.37,2013-09-02 14:16:00,
2013-09-02 15:21:00,66.3,59.6,30.11,WSW,256,16.1,16.1,79,0.00,CLR,,0.00,WeatherDisplay:10.37,2013-09-02 14:21:00,
2013-09-02 15:26:00,66.4,60.0,30.11,WSW,252,18.4,18.4,80,0.00,CLR,,0.00,WeatherDisplay:10.37,2013-09-02 14:26:00,
2013-09-02 15:31:00,66.8,60.1,30.10,WNW,298,17.3,17.3,79,0.00,CLR,,0.00,WeatherDisplay:10.37,2013-09-02 14:31:00,
2013-09-02 15:36:00,66.7,59.6,30.10,WSW,252,20.7,20.7,78,0.00,CLR,,0.00,WeatherDisplay:10.37,2013-09-02 14:36:00,
2013-09-02 15:41:00,66.5,59.8,30.10,West,275,24.0,24.0,79,0.00,CLR,,0.00,WeatherDisplay:10.37,2013-09-02 14:41:00,
2013-09-02 15:46:00,66.5,59.8,30.11,West,277,13.8,13.8,79,0.00,CLR,,0.00,WeatherDisplay:10.37,2013-09-02 14:46:00,
2013-09-02 15:51:00,66.5,59.4,30.11,WNW,300,26.5,26.5,78,0.00,CLR,,0.00,WeatherDisplay:10.37,2013-09-02 14:51:00,
2013-09-02 15:56:00,66.3,59.6,30.11,SSW,207,16.1,16.1,79,0.00,CLR,,0.00,WeatherDisplay:10.37,2013-09-02 14:56:00,
2013-09-02 16:01:00,66.2,59.5,30.11,WSW,243,23.0,23.0,79,0.00,CLR,,0.00,WeatherDisplay:10.37,2013-09-02 15:01:00,
2013-09-02 16:06:00,66.1,59.7,30.11,West,277,19.6,19.6,80,0.00,CLR,,0.00,WeatherDisplay:10.37,2013-09-02 15:06:00,
2013-09-02 16:11:00,66.4,60.0,30.11,West,275,17.3,17.3,80,0.00,CLR,,0.00,WeatherDisplay:10.37,2013-09-02 15:11:00,
2013-09-02 16:16:00,66.5,59.8,30.11,West,266,21.9,21.9,79,0.00,CLR,,0.00,WeatherDisplay:10.37,2013-09-02 15:16:00,
2013-09-02 16:21:00,66.5,59.8,30.11,West,267,19.6,19.6,79,0.00,CLR,,0.00,WeatherDisplay:10.37,2013-09-02 15:21:00,
2013-09-02 16:26:00,66.7,60.0,30.11,WSW,241,19.6,19.6,79,0.00,CLR,,0.00,WeatherDisplay:10.37,2013-09-02 15:26:00,
2013-09-02 16:31:00,66.9,60.2,30.11,West,275,16.1,16.1,79,0.00,CLR,,0.00,WeatherDisplay:10.37,2013-09-02 15:31:00,
2013-09-02 16:36:00,67.0,60.3,30.11,SSW,209,16.1,16.1,79,0.00,CLR,,0.00,WeatherDisplay:10.37,2013-09-02 15:36:00,
2013-09-02 16:41:00,67.0,60.3,30.11,WNW,282,12.7,12.7,79,0.00,CLR,,0.00,WeatherDisplay:10.37,2013-09-02 15:41:00,
2013-09-02 16:46:00,67.2,60.1,30.11,WNW,289,11.0,11.0,78,0.00,CLR,,0.00,WeatherDisplay:10.37,2013-09-02 15:46:00,
2013-09-02 16:51:00,67.1,60.0,30.11,WNW,286,18.4,18.4,78,0.00,CLR,,0.00,WeatherDisplay:10.37,2013-09-02 15:51:00,
2013-09-02 16:56:00,66.8,59.7,30.11,WSW,258,18.4,18.4,78,0.00,CLR,,0.00,WeatherDisplay:10.37,2013-09-02 15:56:00,
2013-09-02 17:01:00,66.7,60.0,30.12,NW,305,16.1,16.1,79,0.00,CLR,,0.00,WeatherDisplay:10.37,2013-09-02 16:01:00,
2013-09-02 17:06:00,66.7,60.0,30.12,West,276,16.0,16.0,79,0.00,CLR,,0.00,WeatherDisplay:10.37,2013-09-02 16:06:00,
2013-09-02 17:11:00,66.5,59.8,30.12,SSW,200,18.4,18.4,79,0.00,CLR,,0.00,WeatherDisplay:10.37,2013-09-02 16:11:00,
2013-09-02 17:16:00,66.3,59.6,30.12,West,270,16.1,16.1,79,0.00,CLR,,0.00,WeatherDisplay:10.37,2013-09-02 16:16:00,
2013-09-02 17:21:00,66.3,59.6,30.12,West,272,19.6,19.6,79,0.00,CLR,,0.00,WeatherDisplay:10.37,2013-09-02 16:21:00,
2013-09-02 17:26:00,66.6,59.9,30.12,WSW,252,16.1,16.1,79,0.00,CLR,,0.00,WeatherDisplay:10.37,2013-09-02 16:26:00,
2013-09-02 17:31:00,66.4,59.7,30.12,NW,308,16.1,16.1,79,0.00,CLR,,0.00,WeatherDisplay:10.37,2013-09-02 16:31:00,
2013-09-02 17:36:00,66.2,59.8,30.12,WNW,290,9.2,9.2,80,0.00,CLR,,0.00,WeatherDisplay:10.37,2013-09-02 16:36:00,
2013-09-02 17:41:00,65.9,59.6,30.12,WNW,284,12.7,12.7,80,0.00,CLR,,0.00,WeatherDisplay:10.37,2013-09-02 16:41:00,
2013-09-02 17:46:00,65.6,59.6,30.12,West,275,19.6,19.6,81,0.00,CLR,,0.00,WeatherDisplay:10.37,2013-09-02 16:46:00,
2013-09-02 17:51:00,65.6,59.6,30.12,WNW,282,15.0,15.0,81,0.00,CLR,,0.00,WeatherDisplay:10.37,2013-09-02 16:51:00,
2013-09-02 17:56:00,65.4,59.4,30.12,West,265,17.3,17.3,81,0.00,CLR,,0.00,WeatherDisplay:10.37,2013-09-02 16:56:00,
2013-09-02 18:01:00,65.2,59.2,30.13,West,271,12.7,12.7,81,0.00,CLR,,0.00,WeatherDisplay:10.37,2013-09-02 17:01:00,
2013-09-02 18:06:00,65.0,59.4,30.13,West,275,13.8,13.8,82,0.00,CLR,,0.00,WeatherDisplay:10.37,2013-09-02 17:06:00,
2013-09-02 18:11:00,64.9,59.3,30.13,SW,216,11.5,11.5,82,0.00,CLR,,0.00,WeatherDisplay:10.37,2013-09-02 17:11:00,
2013-09-02 18:16:00,64.8,59.2,30.13,WSW,254,12.7,12.7,82,0.00,CLR,,0.00,WeatherDisplay:10.37,2013-09-02 17:16:00,
2013-09-02 18:21:00,64.8,59.2,30.13,WSW,257,18.4,18.4,82,0.00,CLR,,0.00,WeatherDisplay:10.37,2013-09-02 17:21:00,
2013-09-02 18:26:00,64.6,59.0,30.13,West,269,15.0,15.0,82,0.00,CLR,,0.00,WeatherDisplay:10.37,2013-09-02 17:26:00,
2013-09-02 18:31:00,64.5,59.2,30.14,West,274,11.5,11.5,83,0.00,CLR,,0.00,WeatherDisplay:10.37,2013-09-02 17:31:00,
2013-09-02 18:36:00,64.4,59.1,30.14,SW,230,11.5,11.5,83,0.00,CLR,,0.00,WeatherDisplay:10.37,2013-09-02 17:36:00,
2013-09-02 18:41:00,64.2,58.9,30.14,West,269,12.7,12.7,83,0.00,CLR,,0.00,WeatherDisplay:10.37,2013-09-02 17:41:00,
2013-09-02 18:46:00,64.1,58.8,30.14,West,272,13.8,13.8,83,0.00,CLR,,0.00,WeatherDisplay:10.37,2013-09-02 17:46:00,
2013-09-02 18:51:00,64.0,59.1,30.14,WSW,249,15.0,15.0,84,0.00,CLR,,0.00,WeatherDisplay:10.37,2013-09-02 17:51:00,
2013-09-02 18:56:00,63.9,59.0,30.14,WSW,240,16.1,16.1,84,0.00,CLR,,0.00,WeatherDisplay:10.37,2013-09-02 17:56:00,
2013-09-02 19:01:00,63.9,59.0,30.14,West,264,16.1,16.1,84,0.00,CLR,,0.00,WeatherDisplay:10.37,2013-09-02 18:01:00,
2013-09-02 19:06:00,63.9,59.0,30.14,WSW,248,13.8,13.8,84,0.00,CLR,,0.00,WeatherDisplay:10.37,2013-09-02 18:06:00,
2013-09-02 19:11:00,63.8,58.9,30.14,West,267,18.4,18.4,84,0.00,CLR,,0.00,WeatherDisplay:10.37,2013-09-02 18:11:00,
2013-09-02 19:16:00,63.7,58.8,30.14,West,271,11.5,11.5,84,0.00,CLR,,0.00,WeatherDisplay:10.37,2013-09-02 18:16:00,
2013-09-02 19:21:00,63.7,58.8,30.14,West,275,13.8,13.8,84,0.00,CLR,,0.00,WeatherDisplay:10.37,2013-09-02 18:21:00,
2013-09-02 19:26:00,63.6,58.7,30.14,West,268,21.0,21.0,84,0.00,CLR,,0.00,WeatherDisplay:10.37,2013-09-02 18:26:00,
2013-09-02 19:31:00,63.5,58.6,30.14,West,275,15.0,15.0,84,0.00,CLR,,0.00,WeatherDisplay:10.37,2013-09-02 18:31:00,
2013-09-02 19:36:00,63.4,58.8,30.14,West,280,10.4,10.4,85,0.00,CLR,,0.00,WeatherDisplay:10.37,2013-09-02 18:36:00,
2013-09-02 19:41:00,63.4,58.8,30.14,West,265,5.8,5.8,85,0.00,CLR,,0.00,WeatherDisplay:10.37,2013-09-02 18:41:00,
2013-09-02 19:46:00,63.3,58.7,30.15,West,267,10.4,10.4,85,0.00,CLR,,0.00,WeatherDisplay:10.37,2013-09-02 18:46:00,
2013-09-02 19:51:00,63.2,58.6,30.15,NW,306,15.0,15.0,85,0.00,CLR,,0.00,WeatherDisplay:10.37,2013-09-02 18:51:00,
2013-09-02 19:56:00,63.1,58.5,30.15,West,271,17.3,17.3,85,0.00,CLR,,0.00,WeatherDisplay:10.37,2013-09-02 18:56:00,
2013-09-02 20:01:00,63.0,58.4,30.15,WSW,245,13.8,13.8,85,0.00,CLR,,0.00,WeatherDisplay:10.37,2013-09-02 19:01:00,
2013-09-02 20:07:00,62.9,58.3,30.15,WNW,286,15.0,15.0,85,0.00,CLR,,0.00,WeatherDisplay:10.37,2013-09-02 19:07:00,
2013-09-02 20:12:00,62.7,58.5,30.15,WSW,240,14.0,14.0,86,0.00,CLR,,0.00,WeatherDisplay:10.37,2013-09-02 19:12:00,
2013-09-02 20:17:00,62.6,58.4,30.15,West,263,15.0,15.0,86,0.00,CLR,,0.00,WeatherDisplay:10.37,2013-09-02 19:17:00,
2013-09-02 20:22:00,62.5,58.3,30.15,WSW,241,19.6,19.6,86,0.00,CLR,,0.00,WeatherDisplay:10.37,2013-09-02 19:22:00,
2013-09-02 20:27:00,62.3,58.1,30.15,SSW,198,11.5,11.5,86,0.00,CLR,,0.00,WeatherDisplay:10.37,2013-09-02 19:27:00,
2013-09-02 20:32:00,62.3,58.1,30.15,WSW,254,19.6,19.6,86,0.00,CLR,,0.00,WeatherDisplay:10.37,2013-09-02 19:32:00,
2013-09-02 20:37:00,62.2,58.0,30.15,West,281,21.9,21.9,86,0.00,CLR,,0.00,WeatherDisplay:10.37,2013-09-02 19:37:00,
2013-09-02 20:42:00,62.1,57.9,30.15,WSW,244,19.6,19.6,86,0.00,CLR,,0.00,WeatherDisplay:10.37,2013-09-02 19:42:00,
2013-09-02 20:47:00,62.1,57.9,30.16,West,262,20.7,20.7,86,0.00,CLR,,0.00,WeatherDisplay:10.37,2013-09-02 19:47:00,
2013-09-02 20:52:00,62.0,58.1,30.16,West,266,16.1,16.1,87,0.00,CLR,,0.00,WeatherDisplay:10.37,2013-09-02 19:52:00,
2013-09-02 20:57:00,61.9,58.0,30.16,West,267,14.0,14.0,87,0.00,CLR,,0.00,WeatherDisplay:10.37,2013-09-02 19:57:00,
2013-09-02 21:03:00,61.8,57.9,30.16,WSW,243,18.4,18.4,87,0.00,CLR,,0.00,WeatherDisplay:10.37,2013-09-02 20:03:00,
2013-09-02 21:08:00,61.8,57.9,30.16,West,273,13.8,13.8,87,0.00,CLR,,0.00,WeatherDisplay:10.37,2013-09-02 20:08:00,
2013-09-02 21:13:00,61.7,57.8,30.16,West,259,13.8,13.8,87,0.00,CLR,,0.00,WeatherDisplay:10.37,2013-09-02 20:13:00,
2013-09-02 21:18:00,61.7,57.8,30.16,West,271,13.8,13.8,87,0.00,CLR,,0.00,WeatherDisplay:10.37,2013-09-02 20:18:00,
2013-09-02 21:23:00,61.6,57.7,30.16,SW,230,15.0,15.0,87,0.00,CLR,,0.00,WeatherDisplay:10.37,2013-09-02 20:23:00,
2013-09-02 21:28:00,61.6,57.7,30.16,SW,225,13.8,13.8,87,0.00,CLR,,0.00,WeatherDisplay:10.37,2013-09-02 20:28:00,
2013-09-02 21:34:00,61.5,57.6,30.16,West,276,11.5,11.5,87,0.00,CLR,,0.00,WeatherDisplay:10.37,2013-09-02 20:34:00,
2013-09-02 21:39:00,61.5,57.6,30.16,SW,215,12.7,12.7,87,0.00,CLR,,0.00,WeatherDisplay:10.37,2013-09-02 20:39:00,
2013-09-02 21:44:00,61.4,57.5,30.17,West,265,13.8,13.8,87,0.00,CLR,,0.00,WeatherDisplay:10.37,2013-09-02 20:44:00,
2013-09-02 21:49:00,61.4,57.8,30.17,WNW,293,11.5,11.5,88,0.00,CLR,,0.00,WeatherDisplay:10.37,2013-09-02 20:49:00,
2013-09-02 21:54:00,61.3,57.7,30.17,West,275,11.5,11.5,88,0.00,CLR,,0.00,WeatherDisplay:10.37,2013-09-02 20:54:00,
2013-09-02 21:59:00,61.3,57.7,30.17,WNW,301,12.7,12.7,88,0.00,CLR,,0.00,WeatherDisplay:10.37,2013-09-02 20:59:00,
2013-09-02 22:04:00,61.3,57.7,30.17,West,279,11.5,11.5,88,0.00,CLR,,0.00,WeatherDisplay:10.37,2013-09-02 21:04:00,
2013-09-02 22:09:00,61.3,57.7,30.17,SW,236,15.0,15.0,88,0.00,CLR,,0.00,WeatherDisplay:10.37,2013-09-02 21:09:00,
2013-09-02 22:14:00,61.4,57.8,30.17,West,275,10.4,10.4,88,0.00,CLR,,0.00,WeatherDisplay:10.37,2013-09-02 21:14:00,
2013-09-02 22:19:00,61.4,57.8,30.17,WSW,258,9.2,9.2,88,0.00,CLR,,0.00,WeatherDisplay:10.37,2013-09-02 21:19:00,
2013-09-02 22:24:00,61.4,57.8,30.17,West,273,6.9,6.9,88,0.00,CLR,,0.00,WeatherDisplay:10.37,2013-09-02 21:24:00,
2013-09-02 22:29:00,61.4,57.8,30.18,West,264,8.0,8.0,88,0.00,CLR,,0.00,WeatherDisplay:10.37,2013-09-02 21:29:00,
2013-09-02 22:34:00,61.4,57.8,30.18,West,261,9.0,9.0,88,0.00,CLR,,0.00,WeatherDisplay:10.37,2013-09-02 21:34:00,
2013-09-02 22:39:00,61.4,57.8,30.18,WNW,287,12.7,12.7,88,0.00,CLR,,0.00,WeatherDisplay:10.37,2013-09-02 21:39:00,
2013-09-02 22:44:00,61.4,57.8,30.18,SW,236,16.1,16.1,88,0.00,CLR,,0.00,WeatherDisplay:10.37,2013-09-02 21:44:00,
2013-09-02 22:49:00,61.4,57.8,30.18,West,280,11.5,11.5,88,0.00,CLR,,0.00,WeatherDisplay:10.37,2013-09-02 21:49:00,
2013-09-02 22:54:00,61.4,57.8,30.18,SW,223,12.7,12.7,88,0.00,CLR,,0.00,WeatherDisplay:10.37,2013-09-02 21:54:00,
2013-09-02 22:59:00,61.4,57.8,30.18,West,271,15.0,15.0,88,0.00,CLR,,0.00,WeatherDisplay:10.37,2013-09-02 21:59:00,
2013-09-02 23:04:00,61.4,57.8,30.18,West,259,10.4,10.4,88,0.00,CLR,,0.00,WeatherDisplay:10.37,2013-09-02 22:04:00,
2013-09-02 23:09:00,61.4,57.8,30.18,SW,224,10.4,10.4,88,0.00,CLR,,0.00,WeatherDisplay:10.37,2013-09-02 22:09:00,
2013-09-02 23:14:00,61.4,57.8,30.18,South,190,13.8,13.8,88,0.00,CLR,,0.00,WeatherDisplay:10.37,2013-09-02 22:14:00,
2013-09-02 23:19:00,61.3,57.7,30.18,West,267,16.1,16.1,88,0.00,CLR,,0.00,WeatherDisplay:10.37,2013-09-02 22:19:00,
2013-09-02 23:24:00,61.3,57.7,30.18,WNW,284,9.2,9.2,88,0.00,CLR,,0.00,WeatherDisplay:10.37,2013-09-02 22:24:00,
2013-09-02 23:29:00,61.3,57.7,30.18,West,262,11.5,11.5,88,0.00,CLR,,0.00,WeatherDisplay:10.37,2013-09-02 22:29:00,
2013-09-02 23:34:00,61.3,57.7,30.18,West,265,13.8,13.8,88,0.00,CLR,,0.00,WeatherDisplay:10.37,2013-09-02 22:34:00,
2013-09-02 23:39:00,61.3,57.7,30.18,West,278,9.2,9.2,88,0.00,CLR,,0.00,WeatherDisplay:10.37,2013-09-02 22:39:00,
2013-09-02 23:44:00,61.3,57.7,30.18,SW,234,11.5,11.5,88,0.00,CLR,,0.00,WeatherDisplay:10.37,2013-09-02 22:44:00,
2013-09-02 23:49:00,61.3,57.7,30.18,WSW,246,10.4,10.4,88,0.00,CLR,,0.00,WeatherDisplay:10.37,2013-09-02 22:49:00,
2013-09-02 23:54:00,61.3,57.7,30.18,WNW,282,11.5,11.5,88,0.00,CLR,,0.00,WeatherDisplay:10.37,2013-09-02 22:54:00,
2013-09-02 23:59:00,61.2,57.6,30.18,WSW,254,13.8,13.8,88,0.00,CLR,,0.00,WeatherDisplay:10.37,2013-09-02 22:59:00,